Simultaneous Nadir Overpasses (SNOs) Predictions

Prediction of SNOs between METOP-B and NPP Satellite Orbit:

Table of predicted SNOs for the next 14.0 days since TLE Epoch: 2/24/2024
Index Date (METOP-B) Time (METOP-B) Lat,Lon (METOP-B) SZA (METOP-B ) Date (NPP) Time (NPP) Lat,Lon (NPP) SZA (NPP ) Distance(km) Time Diff (sec)
1 03/02/2024 18:25:36 73.77,-103.83 80.75 03/02/2024 18:24:28 73.76,-106.41 80.91 80.16 68
2 03/02/2024 19:16:20 -73.68, 63.28 99.35 03/02/2024 19:15:11 -73.72, 61.03 99.16 70.57 69
3 03/02/2024 20:07:03 73.50,-129.79 80.49 03/02/2024 20:05:52 73.47,-131.10 80.56 41.77 71
4 03/02/2024 20:57:47 -73.41, 37.34 99.60 03/02/2024 20:56:35 -73.43, 36.32 99.51 32.13 72
5 03/02/2024 21:48:31 73.18,-155.83 80.19 03/02/2024 21:47:16 73.18,-155.82 80.21 0.46 75
6 03/02/2024 22:39:13 -73.19, 11.51 99.82 03/02/2024 22:38:00 -73.18, 11.49 99.81 1.35 73
7 03/02/2024 23:29:53 73.17, 178.79 80.15 03/02/2024 23:28:46 73.19, 178.79 80.19 2.72 67
8 03/03/2024 00:20:35 -73.18, -13.87 99.86 03/03/2024 00:19:30 -73.19, -13.90 99.83 2.15 65
9 03/03/2024 01:11:15 73.15, 153.41 80.10 03/03/2024 01:10:15 73.15, 153.50 80.11 3.13 60
10 03/03/2024 02:01:57 -73.16, -39.24 99.90 03/03/2024 02:00:59 -73.15, -39.19 99.90 2.12 58
11 03/03/2024 02:52:36 73.18, 128.14 80.11 03/03/2024 02:51:45 73.16, 128.11 80.10 2.80 51
12 03/03/2024 03:43:19 -73.14, -64.62 99.95 03/03/2024 03:42:29 -73.16, -64.58 99.92 2.48 50
13 03/03/2024 04:33:58 73.16, 102.76 80.06 03/03/2024 04:33:15 73.16, 102.72 80.08 1.27 43
14 03/03/2024 05:24:40 -73.17, -89.89 99.95 03/03/2024 05:23:59 -73.17, -89.97 99.94 2.55 41
15 03/03/2024 06:15:20 73.14, 77.38 80.02 03/03/2024 06:14:44 73.12, 77.44 80.00 3.09 36
16 03/03/2024 07:06:02 -73.16,-115.27 99.99 03/03/2024 07:05:28 -73.13,-115.25 100.01 3.47 34
17 03/03/2024 07:56:42 73.13, 52.00 79.98 03/03/2024 07:56:14 73.13, 52.04 79.99 1.52 28
18 03/03/2024 08:47:24 -73.14,-140.65 100.03 03/03/2024 08:46:58 -73.13,-140.64 100.03 0.56 26
19 03/03/2024 09:38:03 73.16, 26.73 79.98 03/03/2024 09:37:44 73.14, 26.65 79.97 3.35 19
20 03/03/2024 10:28:46 -73.12,-166.03 100.07 03/03/2024 10:28:28 -73.14,-166.04 100.05 2.39 18
21 03/03/2024 11:19:25 73.14, 1.35 79.94 03/03/2024 11:19:14 73.15, 1.26 79.95 3.00 11
22 03/03/2024 12:10:08 -73.10, 168.59 100.12 03/03/2024 12:09:57 -73.10, 168.68 100.12 2.92 11
23 03/03/2024 13:00:47 73.12, -24.03 79.89 03/03/2024 13:00:43 73.11, -24.02 79.88 2.01 4
24 03/03/2024 13:51:29 -73.13, 143.32 100.12 03/03/2024 13:51:27 -73.11, 143.29 100.14 3.17 2
25 03/03/2024 14:42:09 73.11, -49.41 79.85 03/03/2024 14:42:13 73.11, -49.41 79.86 0.95 4
26 03/03/2024 15:32:51 -73.12, 117.94 100.16 03/03/2024 15:32:57 -73.12, 117.90 100.16 1.46 6
27 03/03/2024 16:23:31 73.09, -74.79 79.81 03/03/2024 16:23:42 73.07, -74.70 79.78 3.37 11
28 03/03/2024 17:14:13 -73.10, 92.56 100.20 03/03/2024 17:14:26 -73.07, 92.61 100.23 3.22 13
29 03/03/2024 18:04:53 73.07,-100.17 79.77 03/03/2024 18:05:12 73.08,-100.09 79.77 2.71 19
30 03/03/2024 18:55:35 -73.08, 67.18 100.24 03/03/2024 18:55:56 -73.08, 67.22 100.25 1.21 21
31 03/03/2024 19:46:14 73.10,-125.44 79.77 03/03/2024 19:46:42 73.09,-125.48 79.75 2.14 28
32 03/03/2024 20:36:57 -73.06, 41.81 100.29 03/03/2024 20:37:26 -73.09, 41.83 100.27 3.14 29
33 03/03/2024 21:27:36 73.08,-150.82 79.72 03/03/2024 21:28:12 73.10,-150.87 79.73 2.38 36
34 03/03/2024 22:18:18 -73.10, 16.53 100.28 03/03/2024 22:18:56 -73.10, 16.44 100.29 3.18 38
35 03/03/2024 23:08:58 73.07,-176.19 79.68 03/03/2024 23:09:41 73.05,-176.16 79.66 1.74 43
36 03/03/2024 23:59:40 -73.08, -8.84 100.33 03/04/2024 00:00:25 -73.06, -8.85 100.36 2.33 45
37 03/04/2024 00:50:20 73.05, 158.43 79.64 03/04/2024 00:51:11 73.06, 158.45 79.64 1.81 51
38 03/04/2024 01:41:02 -73.06, -34.22 100.37 03/04/2024 01:41:55 -73.07, -34.24 100.38 0.77 53
39 03/04/2024 02:31:41 73.08, 133.16 79.64 03/04/2024 02:32:41 73.07, 133.06 79.62 3.36 60
40 03/04/2024 03:22:24 -73.04, -59.60 100.41 03/04/2024 03:23:24 -73.02, -59.52 100.45 3.31 60
41 03/04/2024 04:13:03 73.06, 107.78 79.60 03/04/2024 04:14:10 73.03, 107.77 79.55 3.72 67
42 03/04/2024 05:03:46 -73.02, -84.98 100.46 03/04/2024 05:04:54 -73.03, -84.91 100.47 2.29 68
43 03/04/2024 05:54:26 72.99, 82.29 79.51 03/04/2024 05:55:40 73.04, 82.38 79.53 5.69 74
44 03/04/2024 06:45:09 -72.96,-110.47 100.54 03/04/2024 06:46:23 -72.99,-110.20 100.54 9.48 74
45 03/04/2024 07:35:54 72.67, 56.28 79.21 03/04/2024 07:37:04 72.74, 57.63 79.18 45.40 70
46 03/04/2024 08:26:37 -72.63,-136.47 100.84 03/04/2024 08:27:47 -72.70,-134.95 100.89 50.73 70
47 03/04/2024 09:17:21 72.40, 30.39 78.95 03/04/2024 09:18:28 72.45, 32.86 78.82 83.13 67
48 03/04/2024 10:08:05 -72.31,-162.45 101.15 03/04/2024 10:09:11 -72.40,-159.73 101.25 92.39 66



Historial Predications of SNOs between METOP-B and NPP
